RH
21 20 20 19 18 18 17 16 16 16 16 16 16 16 16 18 15 10 7 5 6 6 12 7 8 15 31 36 39 35 42 45 45 44 43 51 65 62 64 72 65 66 71 73 81
16 17 18 18 17 16 16 16 15 15 15 15 15 16 16 18 17 10 4 5 6 7 6 6 6 10 17 18 25 35 40 37 35 36 49 48 56 62 66 66 69 71 68 72 82
10 11 12 15 15 15 15 14 14 14 14 15 14 15 16 16 18 6 8 6 4 6 8 8 10 11 14 16 23 33 33 32 30 30 40 45 55 56 59 71 70 74 69 78 86
8 8 8 9 12 13 13 14 14 14 13 14 14 14 15 15 18 8 11 11 10 9 8 9 12 8 17 18 14 26 26 28 26 32 41 46 46 57 54 51 51 57 54 77 80
8 8 7 7 8 9 10 12 13 13 13 13 13 13 13 18 14 10 8 7 8 8 6 8 11 10 19 18 15 16 16 25 26 28 34 40 48 56 50 54 56 62 62 73 77
9 8 8 8 7 7 8 9 11 12 13 14 13 13 15 24 12 9 9 8 8 7 7 10 8 8 14 15 13 11 23 30 32 32 36 47 53 51 56 58 69 62 69 70 71
9 9 9 8 8 8 7 8 9 11 12 13 13 15 21 14 16 14 10 13 11 7 8 10 10 13 13 14 11 23 32 32 34 35 48 41 50 56 60 61 75 81 77 76 74
8 8 8 8 8 8 8 7 7 9 11 12 14 23 26 17 20 12 10 13 12 12 9 8 9 8 9 11 21 26 32 39 33 37 44 38 55 63 63 68 79 86 88 84 77
8 7 7 7 7 8 8 7 7 8 10 17 26 28 26 19 15 17 10 13 12 10 10 9 8 9 11 16 33 27 42 38 37 34 41 44 56 63 64 66 76 83 85 86 81
9 8 7 6 6 7 8 7 7 11 25 38 41 37 19 17 17 16 17 17 13 9 11 10 9 18 21 23 45 37 39 35 44 35 42 50 55 65 62 63 70 73 75 81 79
9 8 7 6 6 6 7 8 16 20 21 20 21 24 19 13 15 15 17 17 14 7 10 9 14 18 20 16 20 27 36 33 34 30 40 52 58 68 61 60 62 64 67 72 72
8 8 7 6 5 5 8 14 23 23 20 14 14 15 13 14 20 15 16 18 14 14 9 14 15 14 14 17 20 27 29 34 26 30 35 50 53 63 62 59 60 62 63 65 66
8 7 6 6 5 7 7 7 16 13 24 15 16 19 17 19 22 15 17 17 13 15 10 14 11 13 17 19 17 19 20 22 27 37 42 50 56 63 62 58 59 60 60 61 60
8 7 6 5 6 5 7 7 9 8 36 28 22 18 18 20 26 11 16 16 10 15 11 11 9 13 18 21 20 22 17 17 28 37 46 41 55 66 56 61 55 55 58 57 57
9 8 7 6 6 5 5 5 8 20 37 18 18 17 17 18 13 15 13 16 18 11 12 13 11 13 19 17 17 16 17 20 30 37 42 50 46 45 57 64 55 49 51 53 51
9 8 8 7 5 4 6 11 17 30 39 21 20 15 20 18 15 14 15 15 15 12 10 12 8 12 11 13 15 15 14 23 33 41 47 43 44 43 72 53 46 46 48 50 51
8 6 6 6 4 4 4 5 30 38 20 17 18 16 15 18 18 13 16 15 19 21 20 11 10 10 11 12 14 15 20 27 28 48 47 42 52 34 39 43 38 43 46 48 48
7 5 4 4 4 4 5 19 40 25 23 20 17 18 14 17 17 16 15 21 16 15 22 18 13 11 10 14 16 17 20 29 25 37 40 47 57 39 26 28 34 35 42 45 49
7 4 4 6 15 12 12 25 28 33 24 21 17 19 20 17 15 16 16 18 17 14 16 21 18 12 10 11 12 15 19 17 25 30 31 40 31 22 21 27 37 34 39 42 45
8 6 8 24 31 19 28 20 20 22 16 12 20 18 18 20 18 17 17 16 12 13 12 15 16 12 10 10 12 14 17 19 28 30 33 32 26 31 24 29 34 42 40 40 41
9 11 13 36 33 27 27 22 15 12 13 9 19 20 19 17 17 18 17 15 12 11 13 14 15 13 13 14 12 17 19 23 25 29 30 29 33 28 23 28 29 39 34 35 37
19 25 30 38 44 46 36 23 14 12 11 13 14 16 18 17 17 19 19 15 12 12 14 14 14 16 14 11 12 13 16 19 19 24 33 29 25 18 24 25 36 30 34 32 31
50 50 25 42 57 53 46 36 27 26 24 24 20 16 15 20 24 21 18 13 12 15 16 16 18 16 15 13 14 14 20 22 25 29 36 27 25 22 30 35 38 36 30 30 27
83 84 53 44 43 38 39 31 31 24 29 26 26 24 22 27 26 23 23 20 20 21 27 24 18 14 15 13 14 16 20 23 19 29 30 31 18 19 30 38 46 38 28 26 25
97 88 88 86 60 68 43 39 37 34 26 26 30 34 34 37 33 29 22 22 26 29 30 15 16 15 12 13 16 16 18 24 21 20 20 17 23 21 29 36 36 23 31 29 28
99 100 98 97 80 53 52 41 43 38 34 31 38 34 38 38 34 32 31 31 29 41 34 23 17 18 13 12 14 12 14 22 21 20 21 17 23 21 21 27 30 25 31 30 26
95 97 99 81 89 62 51 51 48 45 36 30 30 42 50 44 35 33 30 31 50 39 57 43 20 24 18 16 16 18 12 16 17 21 20 23 20 22 30 33 28 26 24 22 19
Wind_Speed
17 17 16 17 17 17 17 18 19 18 18 17 18 19 18 19 18 21 27 23 13 14 14 11 8 7 8 6 11 6 3 3 7 8 5 14 4 12 6 16 5 8 17 26 33
17 18 18 18 18 17 18 18 19 20 19 18 18 19 21 22 24 26 24 23 18 16 19 21 14 13 7 6 6 4 2 7 7 6 8 17 14 15 6 16 4 10 18 33 33
17 17 18 18 19 19 19 19 19 21 20 19 18 20 21 22 25 8 2 10 19 23 19 16 10 14 9 6 7 6 6 5 6 14 26 18 14 11 15 6 11 25 33 38 34
20 19 18 18 19 20 20 20 20 20 22 21 20 20 21 19 7 1 2 4 3 17 24 20 17 10 6 6 8 3 13 11 11 14 23 17 17 8 22 7 17 22 38 39 37
18 20 21 20 19 20 20 20 20 20 22 23 22 21 21 12 26 20 15 14 13 16 30 25 19 11 6 6 5 6 4 14 18 22 25 24 13 6 16 6 15 32 37 37 36
22 20 21 23 22 20 20 20 21 21 22 24 25 23 16 7 15 10 10 9 11 17 30 24 14 13 8 5 5 4 4 15 20 17 16 13 8 18 12 17 27 35 36 35 35
23 25 22 22 23 24 22 21 22 21 23 24 25 23 19 33 20 24 19 7 8 18 27 27 8 7 4 1 4 9 6 9 6 8 5 20 2 7 20 26 31 31 34 34 32
21 23 26 26 25 23 23 22 22 23 23 24 22 19 13 19 15 16 11 8 6 11 17 14 15 5 5 2 4 3 5 6 4 8 14 8 6 3 28 29 27 26 28 33 33
23 22 23 24 26 27 22 23 23 23 21 18 13 10 13 9 7 5 9 10 8 7 10 12 10 5 3 5 4 3 7 4 3 8 7 3 4 10 27 27 25 28 28 30 33
26 25 24 23 24 27 24 22 20 16 14 11 12 6 13 11 4 14 6 8 7 10 13 9 6 3 3 4 6 6 6 3 7 9 8 6 4 12 24 24 27 28 28 32 35
26 27 26 23 24 24 24 16 7 4 7 9 12 15 21 17 23 14 7 5 12 6 6 7 4 7 10 9 8 8 7 17 1 3 3 5 5 15 23 21 22 26 28 32 37
25 27 27 21 23 22 13 6 3 5 14 28 34 36 40 35 18 32 17 7 6 6 2 3 9 9 8 6 8 10 7 10 2 4 5 2 3 10 19 24 28 27 28 30 35
24 26 28 24 21 12 14 7 2 12 5 23 17 16 15 20 24 34 16 8 5 7 4 6 4 11 8 5 7 5 10 6 15 5 3 6 3 7 11 17 21 25 30 31 36
25 24 27 27 13 14 9 5 10 14 3 8 5 3 4 8 7 35 21 15 5 12 7 6 7 9 9 11 8 7 8 8 9 9 7 6 5 7 11 17 15 28 29 37 38
26 23 25 25 24 14 9 15 13 2 5 4 3 3 5 10 3 13 24 17 9 6 6 7 5 8 5 8 9 9 8 11 8 8 5 1 2 6 14 12 21 28 33 37 42
29 23 28 24 23 12 5 5 2 4 7 6 3 1 4 4 5 3 17 15 15 6 3 10 6 8 12 5 10 9 7 6 4 4 2 9 9 5 7 24 25 26 33 38 39
30 25 25 26 22 20 13 7 2 4 4 4 2 3 3 5 6 3 8 7 7 7 7 2 7 4 4 5 1 6 6 2 2 2 6 3 4 12 11 16 24 23 39 40 43
32 28 24 22 18 19 8 3 5 5 9 5 4 4 2 5 5 6 5 5 3 5 4 6 6 8 4 8 8 6 9 6 6 5 5 4 8 10 20 19 20 20 34 33 37
32 29 20 12 11 10 11 4 8 7 5 2 5 2 3 4 4 3 4 9 10 10 11 7 8 4 4 5 10 4 4 7 7 2 2 5 8 9 6 7 12 25 28 36 41
33 31 9 8 6 15 3 7 7 6 3 3 2 3 1 3 6 6 3 4 6 11 6 8 1 9 7 3 4 10 9 3 3 5 5 5 4 6 5 11 9 8 26 36 41
26 13 7 7 10 11 4 7 7 16 7 4 4 2 1 2 5 3 6 5 5 5 9 7 5 7 7 12 15 3 4 5 6 5 7 4 6 9 10 12 12 14 33 37 41
14 4 8 11 1 1 3 6 4 4 5 4 1 5 6 6 5 6 8 9 6 6 5 10 10 10 12 4 6 11 11 9 7 6 3 4 7 5 12 6 12 19 28 29 36
18 9 4 11 3 3 5 5 3 3 4 2 4 6 4 6 4 8 8 10 23 7 7 6 5 10 7 5 1 5 5 6 5 4 8 6 6 2 5 7 15 21 24 27 33
7 4 4 6 2 2 5 5 4 6 6 6 5 4 3 5 6 6 4 3 4 3 23 17 6 11 17 15 5 5 7 7 7 5 6 7 7 6 9 9 10 19 22 28 34
4 4 2 4 2 3 2 4 4 4 3 4 4 7 9 7 7 8 10 13 4 5 6 3 12 9 20 9 7 8 7 9 8 7 7 9 10 11 12 13 18 27 25 26 31
4 4 7 8 12 4 2 3 3 4 3 6 6 8 9 9 11 9 9 7 5 3 5 4 6 6 17 13 11 9 8 9 7 3 7 3 8 9 6 8 11 24 28 30 34
4 6 6 6 4 2 3 1 6 11 11 16 9 7 11 8 12 19 17 12 7 7 2 3 1 3 11 7 6 5 16 9 6 6 9 8 13 7 6 9 15 22 29 35 39
Wind_Direction
327 327 328 328 328 326 326 328 329 328 330 328 327 325 318 309 300 283 269 263 260 215 209 195 200 178 194 226 223 198 92 161 191 155 185 159 124 159 166 150 172 180 165 170 164
324 324 323 324 324 324 322 323 324 325 326 329 324 322 325 317 308 286 270 266 252 230 211 227 217 207 207 231 209 160 149 208 182 170 164 161 165 162 141 164 136 138 159 162 165
320 320 322 319 320 320 320 320 320 321 323 324 324 320 321 325 318 302 219 235 233 220 216 217 196 186 209 207 205 193 218 166 177 173 158 157 161 168 152 228 199 167 161 166 171
321 320 320 317 316 315 317 317 318 318 318 321 322 318 317 320 302 80 257 293 263 217 203 198 181 175 187 198 204 195 248 159 170 166 152 161 164 168 171 215 222 194 171 170 176
324 322 321 319 316 313 313 314 314 315 314 316 316 315 311 295 278 295 285 267 256 221 199 193 185 177 184 195 189 221 214 194 177 184 169 158 168 176 184 251 181 175 173 177 182
323 322 320 319 316 313 312 312 312 310 308 311 313 310 298 256 302 291 306 262 250 211 192 187 192 187 181 208 153 279 183 148 155 152 143 132 141 143 206 168 165 172 178 182 185
321 321 319 318 318 316 313 312 308 306 303 305 308 305 281 273 292 279 282 266 223 208 195 192 167 158 155 210 240 160 101 69 100 128 106 129 143 213 170 173 166 175 181 187 192
319 318 319 319 318 315 314 314 307 304 301 303 303 295 268 292 283 265 272 227 206 205 205 196 213 253 210 314 51 92 63 113 203 145 163 147 246 162 166 165 171 181 188 194 198
321 318 316 317 318 317 318 313 309 305 299 300 291 277 272 273 295 332 253 219 210 195 184 194 190 205 168 102 43 345 150 131 173 197 146 164 220 176 171 171 176 184 192 201 205
322 319 315 319 318 316 321 318 310 295 288 286 267 291 255 248 267 318 311 259 223 188 179 197 172 110 47 95 192 185 167 119 197 195 166 166 230 163 181 179 183 192 196 201 210
321 317 314 323 319 323 325 334 321 304 292 250 270 258 266 269 292 283 285 278 211 177 159 182 138 181 185 184 192 156 172 187 171 27 42 186 164 180 188 193 197 196 200 205 213
321 317 313 323 316 324 334 9 330 331 301 288 280 266 264 259 274 266 271 205 162 193 189 104 208 193 174 176 167 169 154 207 330 148 150 134 301 199 199 202 200 203 208 208 214
325 321 317 321 319 326 339 330 249 318 267 298 274 259 268 238 227 248 236 196 149 175 202 174 231 145 142 172 133 171 177 166 218 145 65 121 315 195 214 217 215 222 219 217 217
329 328 319 320 323 323 339 344 326 317 1 275 268 274 216 200 230 233 230 201 170 187 159 218 224 163 155 174 150 159 208 165 144 143 201 166 240 225 205 211 214 220 217 220 222
325 326 318 318 314 318 309 300 319 198 326 247 269 293 187 175 196 208 218 196 183 165 134 232 201 164 170 185 165 211 155 157 161 174 119 205 84 260 174 217 225 218 213 218 222
320 325 313 311 308 324 335 307 316 52 251 301 244 339 101 236 281 123 175 204 215 179 147 219 241 165 185 188 175 142 104 63 61 101 125 217 186 254 190 213 228 214 216 214 216
317 319 306 298 297 293 292 311 54 184 309 263 312 12 215 225 216 227 153 160 167 167 211 267 246 208 153 141 70 87 79 357 22 66 208 188 150 231 219 221 222 204 209 211 215
318 317 307 297 283 271 259 71 209 227 239 287 289 322 303 7 223 161 114 188 231 123 151 174 233 193 175 167 167 179 151 157 185 183 224 96 206 243 232 234 240 226 215 209 209
322 320 313 305 279 243 175 194 201 204 227 303 330 63 331 335 66 73 203 191 190 177 191 167 252 293 192 149 148 188 155 187 121 44 97 200 283 306 227 254 210 218 203 208 209
329 326 314 317 285 182 124 223 217 215 252 48 214 225 234 42 28 30 292 225 205 182 181 215 256 223 244 172 225 173 168 99 3 145 221 257 261 230 253 243 213 209 203 212 215
332 321 329 318 149 174 192 226 228 246 236 214 211 239 118 330 189 211 235 276 202 198 181 164 142 266 145 205 213 126 152 64 125 137 174 200 257 214 217 216 213 214 213 210 210
342 325 326 151 339 188 205 201 242 244 207 234 154 215 199 202 241 224 216 219 185 130 166 209 196 220 219 224 200 193 184 165 197 230 217 180 255 221 210 206 227 226 219 209 215
326 285 259 215 232 255 301 299 291 278 269 241 241 199 188 208 239 203 217 234 241 164 209 183 221 222 284 298 219 187 171 126 119 94 189 182 254 288 244 242 229 222 202 206 215
306 323 309 205 261 30 352 271 264 275 261 226 227 268 257 261 233 258 248 277 229 229 309 205 174 194 225 228 174 190 174 177 153 145 174 210 233 248 232 221 222 223 212 207 213
266 260 324 304 330 346 257 292 280 269 286 266 283 217 213 224 225 224 245 264 265 34 352 117 194 197 225 183 179 205 175 170 177 185 163 232 198 225 210 206 209 213 211 206 213
288 326 331 298 296 309 194 278 308 328 271 259 210 266 287 228 208 233 210 201 186 5 36 347 265 198 229 206 193 227 215 177 197 112 260 271 224 223 222 178 160 206 207 210 213
308 296 299 281 309 317 242 340 309 323 264 245 279 336 289 258 312 285 270 274 212 121 260 297 174 96 245 180 163 238 232 199 193 184 168 184 225 167 186 201 213 199 205 212 217